TimeCDT,TemperatureF,Dew PointF,Humidity,Sea Level PressureIn,VisibilityMPH,Wind Direction,Wind SpeedMPH,Gust SpeedMPH,PrecipitationIn,Events,Conditions,WindDirDegrees,DateUTC
12:15 AM,45.5,41.7,87,29.73,10.0,WSW,11.5,-,N/A,,Clear,240,2013-10-21 05:15:00
12:35 AM,43.9,41.2,90,29.74,10.0,SW,9.2,-,N/A,,Clear,230,2013-10-21 05:35:00
12:55 AM,43.9,41.4,91,29.74,10.0,SW,9.2,-,N/A,,Clear,230,2013-10-21 05:55:00
1:15 AM,44.1,41.5,91,29.75,10.0,SW,9.2,-,N/A,,Mostly Cloudy,220,2013-10-21 06:15:00
1:35 AM,44.6,41.7,90,29.75,10.0,SW,9.2,-,N/A,,Overcast,230,2013-10-21 06:35:00
1:55 AM,44.6,41.9,90,29.76,10.0,SW,9.2,-,N/A,,Overcast,230,2013-10-21 06:55:00
2:15 AM,45.0,40.1,83,29.77,10.0,WSW,12.7,-,N/A,,Overcast,250,2013-10-21 07:15:00
2:35 AM,43.9,37.9,80,29.77,10.0,West,12.7,19.6,N/A,,Overcast,280,2013-10-21 07:35:00
2:55 AM,42.8,36.7,79,29.78,10.0,West,11.5,23.0,N/A,,Overcast,270,2013-10-21 07:55:00
3:15 AM,41.5,34.7,77,29.79,10.0,West,9.2,17.3,N/A,,Overcast,270,2013-10-21 08:15:00
3:35 AM,41.2,33.6,74,29.80,10.0,West,11.5,20.7,N/A,,Overcast,260,2013-10-21 08:35:00
3:55 AM,40.5,33.1,75,29.81,10.0,West,11.5,18.4,N/A,,Overcast,280,2013-10-21 08:55:00
4:15 AM,39.0,30.9,73,29.82,10.0,West,12.7,20.7,N/A,,Overcast,280,2013-10-21 09:15:00
4:35 AM,38.3,30.4,73,29.83,10.0,West,9.2,17.3,N/A,,Overcast,260,2013-10-21 09:35:00
4:55 AM,38.3,30.4,73,29.84,10.0,West,11.5,19.6,N/A,,Overcast,280,2013-10-21 09:55:00
5:15 AM,38.3,30.9,75,29.84,10.0,West,6.9,-,N/A,,Overcast,270,2013-10-21 10:15:00
5:35 AM,38.3,31.1,75,29.85,10.0,West,5.8,-,N/A,,Overcast,270,2013-10-21 10:35:00
5:55 AM,38.3,31.1,75,29.85,10.0,WSW,8.1,-,N/A,,Overcast,250,2013-10-21 10:55:00
6:15 AM,37.9,31.5,77,29.86,10.0,West,8.1,-,N/A,,Overcast,260,2013-10-21 11:15:00
6:35 AM,38.3,31.1,75,29.86,10.0,West,4.6,9.2,N/A,,Overcast,270,2013-10-21 11:35:00
6:55 AM,37.9,31.6,78,29.86,10.0,WSW,5.8,-,N/A,,Overcast,250,2013-10-21 11:55:00
7:15 AM,37.6,31.8,80,29.87,10.0,West,6.9,-,N/A,,Overcast,260,2013-10-21 12:15:00
7:35 AM,36.9,31.6,81,29.87,10.0,WSW,8.1,-,N/A,,Overcast,250,2013-10-21 12:35:00
7:55 AM,38.1,30.7,75,29.87,10.0,West,10.4,-,N/A,,Overcast,260,2013-10-21 12:55:00
8:15 AM,37.6,29.3,72,29.88,10.0,West,9.2,-,N/A,,Overcast,260,2013-10-21 13:15:00
8:35 AM,37.9,27.9,67,29.88,10.0,West,10.4,17.3,N/A,,Overcast,270,2013-10-21 13:35:00
8:55 AM,38.5,27.9,66,29.89,10.0,WNW,9.2,16.1,N/A,,Overcast,290,2013-10-21 13:55:00
9:15 AM,38.5,28.0,66,29.89,10.0,West,6.9,16.1,N/A,,Overcast,280,2013-10-21 14:15:00
9:35 AM,39.0,28.2,65,29.88,10.0,West,6.9,-,N/A,,Mostly Cloudy,270,2013-10-21 14:35:00
9:55 AM,39.9,29.1,65,29.88,10.0,West,9.2,20.7,N/A,,Mostly Cloudy,260,2013-10-21 14:55:00
10:15 AM,40.1,28.9,64,29.88,10.0,WSW,9.2,-,N/A,,Overcast,250,2013-10-21 15:15:00
10:35 AM,40.1,28.9,64,29.88,10.0,West,10.4,-,N/A,,Overcast,260,2013-10-21 15:35:00
10:55 AM,40.1,27.9,62,29.89,10.0,WSW,13.8,-,N/A,,Overcast,240,2013-10-21 15:55:00
11:15 AM,40.3,28.6,63,29.89,10.0,WSW,9.2,-,N/A,,Overcast,240,2013-10-21 16:15:00
11:35 AM,40.3,28.2,62,29.88,10.0,West,6.9,-,N/A,,Overcast,270,2013-10-21 16:35:00
11:55 AM,39.4,29.7,68,29.89,10.0,West,11.5,19.6,N/A,,Drizzle,270,2013-10-21 16:55:00
12:15 PM,36.7,32.7,86,29.89,10.0,WNW,6.9,16.1,N/A,Rain,Light Rain,290,2013-10-21 17:15:00
12:35 PM,37.4,32.9,84,29.88,10.0,WNW,11.5,18.4,N/A,,Overcast,290,2013-10-21 17:35:00
12:55 PM,37.4,29.5,73,29.89,10.0,West,15.0,20.7,N/A,,Overcast,270,2013-10-21 17:55:00
1:15 PM,37.4,25.7,63,29.88,10.0,West,9.2,23.0,N/A,,Overcast,270,2013-10-21 18:15:00
1:35 PM,37.9,24.8,59,29.88,10.0,West,15.0,20.7,N/A,,Overcast,260,2013-10-21 18:35:00
1:55 PM,38.1,23.4,55,29.88,10.0,West,10.4,20.7,N/A,,Overcast,270,2013-10-21 18:55:00
2:15 PM,37.9,22.6,54,29.88,10.0,West,16.1,20.7,N/A,,Overcast,260,2013-10-21 19:15:00
2:35 PM,37.4,21.4,52,29.89,10.0,WSW,15.0,23.0,N/A,,Overcast,250,2013-10-21 19:35:00
2:55 PM,37.0,21.2,53,29.89,10.0,WSW,11.5,18.4,N/A,,Overcast,250,2013-10-21 19:55:00
3:15 PM,37.0,20.7,52,29.89,10.0,West,11.5,19.6,N/A,,Overcast,260,2013-10-21 20:15:00
3:35 PM,36.1,21.0,54,29.89,10.0,West,12.7,19.6,N/A,,Overcast,270,2013-10-21 20:35:00
3:55 PM,36.5,19.6,50,29.89,10.0,WSW,10.4,24.2,N/A,,Overcast,250,2013-10-21 20:55:00
4:15 PM,36.9,20.1,51,29.90,10.0,West,10.4,-,N/A,,Overcast,260,2013-10-21 21:15:00
4:35 PM,36.9,18.3,47,29.90,10.0,West,13.8,19.6,N/A,,Overcast,260,2013-10-21 21:35:00
4:55 PM,36.9,18.1,47,29.90,10.0,West,12.7,19.6,N/A,,Overcast,260,2013-10-21 21:55:00
5:15 PM,36.7,17.6,46,29.91,10.0,West,16.1,23.0,N/A,,Overcast,260,2013-10-21 22:15:00
5:35 PM,36.5,18.5,48,29.92,10.0,West,11.5,-,N/A,,Overcast,260,2013-10-21 22:35:00
5:55 PM,36.3,18.5,48,29.92,10.0,WSW,9.2,-,N/A,,Overcast,250,2013-10-21 22:55:00
6:15 PM,35.6,18.3,50,29.92,10.0,WSW,8.1,-,N/A,,Overcast,250,2013-10-21 23:15:00
6:35 PM,34.7,19.8,54,29.92,10.0,WSW,6.9,-,N/A,,Mostly Cloudy,250,2013-10-21 23:35:00
6:55 PM,34.3,20.3,57,29.92,10.0,WSW,5.8,-,N/A,,Overcast,250,2013-10-21 23:55:00
7:15 PM,33.8,21.2,60,29.92,10.0,WSW,5.8,-,N/A,,Overcast,250,2013-10-22 00:15:00
7:35 PM,34.3,22.1,61,29.92,10.0,WSW,6.9,-,N/A,,Overcast,240,2013-10-22 00:35:00
7:55 PM,35.1,21.0,57,29.92,10.0,WSW,11.5,17.3,N/A,,Overcast,250,2013-10-22 00:55:00
8:15 PM,35.6,19.8,53,29.92,10.0,West,9.2,-,N/A,,Overcast,260,2013-10-22 01:15:00
8:35 PM,36.1,17.4,47,29.92,10.0,West,8.1,21.9,N/A,,Overcast,260,2013-10-22 01:35:00
8:55 PM,36.0,17.2,47,29.93,10.0,West,11.5,17.3,N/A,,Overcast,270,2013-10-22 01:55:00
9:15 PM,36.0,17.2,47,29.93,10.0,West,10.4,24.2,N/A,,Overcast,270,2013-10-22 02:15:00
9:35 PM,35.6,17.6,48,29.93,10.0,West,6.9,-,N/A,,Overcast,260,2013-10-22 02:35:00
9:55 PM,35.2,18.3,50,29.92,10.0,West,6.9,-,N/A,,Overcast,280,2013-10-22 02:55:00
10:15 PM,33.8,19.0,55,29.92,10.0,WSW,8.1,-,N/A,,Scattered Clouds,250,2013-10-22 03:15:00
10:35 PM,33.3,19.0,56,29.92,10.0,West,8.1,-,N/A,,Clear,260,2013-10-22 03:35:00
10:55 PM,32.9,19.4,58,29.92,10.0,West,6.9,-,N/A,,Clear,260,2013-10-22 03:55:00
11:15 PM,31.6,20.1,62,29.92,10.0,WSW,6.9,-,N/A,,Clear,240,2013-10-22 04:15:00
11:35 PM,29.8,20.8,69,29.92,10.0,WSW,6.9,-,N/A,,Clear,240,2013-10-22 04:35:00
11:55 PM,29.3,20.3,69,29.92,10.0,WSW,8.1,-,N/A,,Clear,240,2013-10-22 04:55:00